Location: Kampung Segan
(3.1399°N, 113.1002°E)
Time: 13:18:41
(UTC+00:00)

ARIANE 5 DEB (SYLDA) - Pass Details

Date: 05 August 2024
Orbit: 870 x 35948 km, 1.6° (Epoch: 07 September)

Event Time Altitude Azimuth Distance (km) Brightness Sun altitude
Exits shadow 20:20:37 51° 146° (SE) 1,147 3.3 -30.6°
Drops below altitude 10° 20:26:30 10° 99° (E) 3,645 6.7 -29.2°
Sets 20:31:22 0° 95° (E) 5,930 8.0 -28.1°
